SL-16 DEB, 22616

Orbit data source: Space-Track

SL-16 DEB, 22616 is space debris in LEO originally from a launch on Fri, 26 Mar 1993 UTC launched from the Tyuratam Missile And Space Complex (TTMTR). Debris objects in space refer to the collection of defunct objects orbiting the Earth. Examples of debris include non-operational satellites, rocket bodies, and fragments generated from explosions, collisions, or faulty payload assembly.

Loading next visibility...
Identifier
22616, 1993-016AA
Orbit
LEO
Country
Flag of CISCIS
Related business
Manufacturer
Unknown
Mission
Spacecraft
Bus & Motor
Unknown
Mass
Unknown
Launch date (UTC)
1993-03-26 (33 years ago)
Launch vehicle
Unknown
Launch site
Tyuratam Missile And Space Complex (TTMTR)
Object type
Payload
Rocket body
Debris
Shape & HBR
Unknown shape, 0.1 m
Radar Cross Section
Small (<0.1 m²)

Expand to show TLE details & history
Last TLE update: 1 day ago

TLE from 1 day ago
0 SL-16 DEB
1 22616U 93016AA  26035.42934169  .00000071  00000-0  10732-3 0  9994
2 22616  70.9960 158.7728 0186709   5.4962  63.9704 13.73993608646852
Epoch: 2026-02-04T10:18Z
TLE epoch observation values (Epoch: 2026-02-04T10:18:15.122Z)
Latitude
63.76151°
Longitude
-86.35238°
Altitude
937.461 km
Speed
7.418 km/s
True Right ascension
13h 31m 13s
True Declination
63° 37' 42"
Sunlit
Object was in daylight at epoch
Visualization orbit readout
Latitude
Unknown
Longitude
Unknown
Altitude
Unknown
Speed
Unknown
Apparent Right ascension
Unknown
Apparent Declination
Unknown
Sunlit
N/A
Visualization observer readout
Local Sidereal Time
18:14:13
Azimuth
Unknown
Elevation
Unknown
Doppler factor
Unknown
Orbital elements
Apogee altitude
1,120.676 km
Perigee altitude
845.789 km
Semi-major axis
7,361.37 km
Eccentricity
0.01867
Inclination
70.996°
RAAN
158.7728°
Arg. of periapsis
5.4962°
True anomaly
65.91242°
Mean anomaly
63.9704°
Eccentric anomaly
64.93946°
Mean motion
3.43641 °/min
Orbital period
104.76 mins
BSTAR
0.00010732
Loading maneuver chart data...
Computing Atmospheric mass density...
Loading historical data...
Loading historical data...
Loading historical data...
Loading historical data...
Loading historical data...
Loading historical data...
Loading historical data...

Documentation

Showing up to 5 results
|